Regional Weather Roundup
Issued by NWS

Home | Current Version | Previous Version | Graphics & Text | Print | Product List | Glossary On
Versions: 1 2 3 4 5 6 7 8 9 10 11 12 13 14 15 16 17 18 19 20 21 22 23 24 25 26 27 28 29 30 31 32 33 34 35 36 37 38 39 40 41 42 43 44 45 46 47 48 49 50
000
ASUS45 KBOU 271207
RWRCO

WEATHER ROUNDUP FOR COLORADO
NATIONAL WEATHER SERVICE DENVER/BOULDER CO
600 AM MDT MON MAR 27 2017

NOTE: "FAIR" INDICATES FEW OR NO CLOUDS BELOW 12000 FEET WITH NO
SIGNIFICANT WEATHER AND/OR OBSTRUCTIONS TO VISIBILITY.

COZ001>005-013-030-031-271300-
...NORTHWEST COLORADO...

CITY           SKY/WX    TMP DP  RH WIND       PRES   REMARKS
CRAIG          CLOUDY    29  25  85 CALM      29.96S
HAYDEN         FAIR      30  25  80 E12       29.95F WCI  21
MEEKER         CLOUDY    34  27  75 CALM      29.95S
MOUNT WERNER   NOT AVBL
STEAMBOAT SPGS MOCLDY    29  27  92 CALM      29.96S
WALDEN         NOT AVBL
$$

COZ006>008-011-271300-
...WEST CENTRAL VALLEYS...

CITY           SKY/WX    TMP DP  RH WIND       PRES   REMARKS
GRAND JUNCTION CLOUDY    45  29  53 E9        29.91S
MONTROSE       CLOUDY    38  29  70 SE9       29.98R
EAGLE          CLOUDY    30  24  78 CALM      30.01S
RIFLE          CLOUDY    37  30  75 CALM      29.96S
DELTA          FAIR      43  30  60 E7        29.96S
NUCLA          MOCLDY    36  30  80 SE5       30.00S
$$

COZ017>023-064>068-271300-
...SOUTHWEST COLORADO...

CITY           SKY/WX    TMP DP  RH WIND       PRES   REMARKS
DURANGO        FAIR      26  22  84 E3        30.00F
CORTEZ         MOCLDY    28  26  92 CALM      29.99S
PAGOSA SPRINGS FAIR      31  30  97 CALM      30.03S
TELLURIDE      NOT AVBL
WOLF CREEK PAS FAIR      19  19 100 S12       30.12F WCI   7
$$

COZ009-010-012-014-032>034-037-058>063-271300-
...CENTRAL COLORADO...

CITY           SKY/WX    TMP DP  RH WIND       PRES   REMARKS
ASPEN          CLOUDY    32  21  64 CALM      29.98S
BUENA VISTA    FAIR      25  19  78 CALM      30.00S
COPPER MTN     FAIR      25  12  58 MISG      30.05S
BERTHOUD PASS  FAIR      14   3  62 NW28G33   30.00R WCI  -6
COTTONWOOD PAS FAIR      32  19  59 CALM      30.02S
GUNNISON       FAIR      24  21  88 CALM      30.04R
KREMMLING      CLOUDY    30  27  86 CALM      30.01S
LEADVILLE      FAIR      21  13  71 NW5       30.00S WCI  15
MONARCH PASS   FOG       21  19  93 W24       30.15S VSB 3/4 WCI   4
SALIDA         FAIR      29  27  93 CALM      30.07S
SUNLIGHT       CLOUDY    27  21  80 SW7       30.07S WCI  19
WILKERSON PASS MOCLDY    23  18  80 W6        30.05S WCI  16
$$

COZ069>075-271300-
...SAN LUIS VALLEY/SANGRE DE CRISTO MOUNTAINS...

CITY           SKY/WX    TMP DP  RH WIND       PRES   REMARKS
ALAMOSA        FAIR      25  22  88 CALM      30.00F
LA VETA PASS   NOT AVBL
SAGUACHE       FAIR      28  21  74 N7        30.02S WCI  21
$$

COZ035-036-038>040-271300-
...NORTHERN COLORADO FRONT RANGE...

CITY           SKY/WX    TMP DP  RH WIND       PRES   REMARKS
DENVER INTL AP FAIR      35  31  85 S10       29.92S WCI  27
DMNS CITY PARK   N/A     37  35  94 S5        29.93R
AURORA         PTCLDY    35  35  99 SW8       29.93S WCI  29
FRONT RANGE AP FAIR      36  32  87 S9        29.93S
ERIE MUNI ARPT FAIR      32  32  99 CALM      29.93R
BOULDER MUN AP FAIR      36  36 100 CALM      29.93R
CENTENNIAL     FAIR      34  31  88 S6        29.93S WCI  29
BROOMFIELD     FAIR      37  36  93 CALM      29.93S
FORT COLLINS   FOG       30  28  93 N7        29.94S VSB 3/4 WCI  23
LONGMONT       FAIR      34  32  94 CALM      29.95S
$$

COZ041-046-047-076>085-087-088-271300-
...PIKES PEAK/PALMER DIVIDE AND SOUTHERN FOOTHILLS...

CITY           SKY/WX    TMP DP  RH WIND       PRES   REMARKS
COLO. SPRINGS  FAIR      32  30  92 NE5       29.97R WCI  27
A. F. ACADEMY  CLOUDY    37  37  99 CALM      29.95F
SCHRIEVER AFB  FAIR      34  33  96 N5        29.97S WCI  29
ELLICOTT         N/A    N/A N/A N/A CALM      29.95S
FALCON         FAIR      32  32 100 CALM      29.98S FOG
FORT CARSON    FAIR      34  34  99 N3        29.95S
LIMON          FAIR      25  25 100 N3        29.95S
MONUMENT HILL  FAIR      30  30 100 S9        29.96F WCI  22
TRINIDAD       FAIR      35  31  85 W8        29.97S WCI  29
$$

COZ042>045-048>051-090-091-271300-
...NORTHEAST COLORADO...

CITY           SKY/WX    TMP DP  RH WIND       PRES   REMARKS
GREELEY ARPT   FAIR      25  23  92 N6        29.94F WCI  18
AKRON          FAIR      35  32  88 SW9       29.94S WCI  28
BURLINGTON     FAIR      34  32  92 W7        29.95R WCI  28
WRAY           FAIR     N/A N/A N/A W7        29.95R
STERLING       FAIR      28  28 100 W7        29.94R WCI  21
HOLYOKE        FAIR      37  36  93 W8        29.94R
FORT MORGAN    FAIR      32  31  96 W3        29.94S
$$

COZ086-089-092>099-271300-
...SOUTHEAST COLORADO...

CITY           SKY/WX    TMP DP  RH WIND       PRES   REMARKS
PUEBLO         FAIR      31  29  92 CALM      29.95R
LA JUNTA       FAIR      35  32  88 SW6       29.95S WCI  30
LAMAR          FAIR      25  22  88 SW5       29.95R WCI  19
SPRINGFIELD      N/A     30  28  92 NW7       29.96R WCI  23
$$



USA.gov is the U.S. government's official web portal to all federal, state and local government web resources and services.